Fort Yukon, AK

1:01 AM AKST on January 21, 2018 (GMT -0900)
Fort Yukon

Weather History for PFYU - December, 2012

Change the Weather History Date:

Wednesday, December 12, 2012

  Actual Average Record
Temperature  
Mean Temperature -6 °F -  
Max Temperature -2 °F -3 °F 21 °F (2011)
Min Temperature -11 °F -15 °F -52 °F (2010)
Degree Days  
Heating Degree Days 72    
Moisture  
Dew Point -21 °F    
Average Humidity 53    
Maximum Humidity 100    
Minimum Humidity 29    
Precipitation  
Precipitation 0.00 in - - ()
Sea Level Pressure  
Sea Level Pressure 29.25 in    
Wind  
Wind Speed 5 mph (NNE)    
Max Wind Speed 9 mph    
Max Gust Speed -    
Visibility 5 miles    
Events Snow    
Averages and records for this station are not official NWS values.
T = Trace of Precipitation, MM = Missing Value Source: NWS Daily Summary

Daily Weather History Graph

Daily Weather History Graph

Search for Another Location

Airport or City:

Trip Planner

Search our weather history database for the weather conditions in past years. The results will help you decide how hot, cold, wet, or windy it might be!

Date:

Astronomy

Dec. 12, 2012 Rise Set
Actual Time 11:19 AM AKST 1:50 PM AKST
Civil Twilight 9:32 AM AKST 3:37 PM AKST
Nautical Twilight 8:13 AM AKST 4:56 PM AKST
Astronomical Twilight 7:07 AM AKST 6:02 PM AKST
Moon 10:10 AM AKST (12/12) 1:59 PM AKST (12/12)
Length of Visible Light 6h 04m
Length of Day
2h 30m
Waning Crescent, 0% of the Moon is Illuminated
Dec 12
Waning Crescent
Dec 12
New
Dec 19
First Quarter
Dec 28
Full
Jan 4
Last Quarter

Hourly Weather History & Observations

Time (AKST) Temp. Windchill Dew Point Humidity Pressure Visibility Wind Dir Wind Speed Gust Speed Precip Events Conditions
12:16 AM - - - N/A% 29.62 in 10.0 mi NE 6.9 mph - N/A   Overcast
12:36 AM - - - N/A% 29.61 in 10.0 mi NE 5.8 mph - N/A   Overcast
12:56 AM - - - N/A% 29.60 in 10.0 mi NE 6.9 mph - N/A   Overcast
1:16 AM - - - N/A% 29.59 in 10.0 mi NNE 5.8 mph - N/A   Overcast
1:36 AM - - - N/A% 29.59 in 10.0 mi NE 5.8 mph - N/A   Overcast
1:56 AM - - - N/A% 29.58 in 10.0 mi NNE 5.8 mph - N/A   Overcast
2:16 AM - - - N/A% 29.57 in 10.0 mi NNE 5.8 mph - N/A   Overcast
2:36 AM - - - N/A% 29.54 in 10.0 mi NE 5.8 mph - N/A   Overcast
2:56 AM - - - N/A% 29.52 in 10.0 mi NE 5.8 mph - N/A   Overcast
3:16 AM - - - N/A% 29.50 in 10.0 mi NNE 6.9 mph - N/A   Overcast
3:36 AM - - - N/A% 29.49 in 5.0 mi NNE 6.9 mph - N/A   Overcast
3:56 AM - - - N/A% 29.48 in 4.0 mi NNE 5.8 mph - N/A   Overcast
4:16 AM - - - N/A% 29.47 in 2.5 mi NNE 5.8 mph - N/A   Overcast
4:36 AM - - - N/A% 29.43 in 1.8 mi NE 9.2 mph - N/A   Overcast
4:56 AM - - - N/A% 29.42 in 1.2 mi NNE 8.1 mph - N/A   Overcast
5:16 AM - - - N/A% 29.42 in 1.8 mi NE 4.6 mph - N/A   Overcast
5:36 AM - - - N/A% 29.40 in 1.8 mi NE 8.1 mph - N/A   Overcast
5:56 AM - - - N/A% 29.37 in 4.0 mi NE 6.9 mph - N/A   Overcast
6:16 AM - - - N/A% 29.37 in 4.0 mi NE 6.9 mph - N/A   Overcast
6:36 AM - - - N/A% 29.35 in 5.0 mi NE 6.9 mph - N/A   Overcast
6:56 AM - - - N/A% 29.33 in 1.5 mi NE 9.2 mph - N/A   Overcast
7:16 AM - - - N/A% 29.32 in 3.0 mi NE 8.1 mph - N/A   Overcast
7:36 AM - - - N/A% 29.30 in 3.0 mi NNE 8.1 mph - N/A   Overcast
7:55 AM -11.2 °F -27.8 °F -23.8 °F 54% 29.29 in 1.5 mi North 8.1 mph - N/A   Overcast
7:56 AM - - - N/A% 29.29 in 1.5 mi NNE 8.1 mph - N/A   Overcast
8:16 AM - - - N/A% 29.27 in 1.8 mi NNE 6.9 mph - N/A   Overcast
8:20 AM -11.2 °F -26.4 °F -23.8 °F 54% 29.27 in 2.0 mi North 6.9 mph - N/A Snow Light Snow
8:36 AM - - - N/A% 29.27 in 2.5 mi NE 9.2 mph - N/A   Overcast
8:55 AM -9.4 °F -26.8 °F - N/A% 29.25 in 3.0 mi North 9.2 mph - N/A Snow Light Snow
8:56 AM - - - N/A% 29.25 in 3.0 mi NE 9.2 mph - N/A   Overcast
9:09 AM -9.4 °F -25.6 °F - N/A% 29.25 in 2.0 mi North 8.1 mph - N/A Snow Light Snow
9:15 AM -9.4 °F -25.6 °F - N/A% 29.23 in 3.0 mi NNE 8.1 mph - N/A Snow Light Snow
9:16 AM - - - N/A% 29.23 in 3.0 mi NE 8.1 mph - N/A   Overcast
9:36 AM - - - N/A% 29.22 in 1.8 mi NE 9.2 mph - N/A   Overcast
9:53 AM -9.4 °F -24.3 °F -32.8 °F 31% 29.23 in 3.0 mi North 6.9 mph - N/A Snow Light Snow
9:56 AM - - - N/A% 29.23 in 4.0 mi NNE 5.8 mph - N/A   Overcast
10:00 AM -9.4 °F -24.3 °F -22.0 °F 54% 29.22 in 7.0 mi North 6.9 mph - N/A Snow Light Snow
10:08 AM -9.4 °F -24.3 °F -20.2 °F 59% 29.21 in 10.0 mi North 6.9 mph - N/A Snow Light Snow
10:16 AM - - - N/A% 29.22 in 5.0 mi NNE 6.9 mph - N/A   Overcast
10:25 AM -9.4 °F -25.6 °F -20.2 °F 59% 29.21 in 1.8 mi North 8.1 mph - N/A Snow Light Snow
10:36 AM - - - N/A% 29.21 in 1.5 mi NNE 5.8 mph - N/A   Overcast
10:56 AM - - - N/A% 29.19 in 1.0 mi NNE 5.8 mph - N/A   Overcast
11:16 AM - - - N/A% 29.19 in 1.5 mi NNE 4.6 mph - N/A   Overcast
11:36 AM - - - N/A% 29.19 in 1.5 mi NNE 4.6 mph - N/A   Overcast
11:52 AM -7.6 °F -20.6 °F - N/A% 29.18 in 2.0 mi North 5.8 mph - N/A Snow Light Snow
11:56 AM - - - N/A% 29.18 in 3.0 mi NNE 5.8 mph - N/A   Overcast
12:15 PM -7.6 °F -20.6 °F - N/A% 29.17 in 3.0 mi North 5.8 mph - N/A Snow Light Snow
12:16 PM - - - N/A% 29.17 in 3.0 mi NNE 5.8 mph - N/A   Overcast
12:36 PM - - - N/A% 29.17 in 3.0 mi NNE 6.9 mph - N/A   Overcast
12:56 PM - - - N/A% 29.16 in 3.0 mi NNE 5.8 mph - N/A   Mostly Cloudy
1:16 PM - - - N/A% 29.16 in 3.0 mi NNE 4.6 mph - N/A   Overcast
1:29 PM -5.8 °F -16.7 °F -16.6 °F 60% 29.15 in 3.0 mi North 4.6 mph - N/A Snow Light Snow
1:36 PM - - - N/A% 29.15 in 3.0 mi NNE 3.5 mph - N/A   Overcast
1:56 PM - - - N/A% 29.14 in 3.0 mi NNE 4.6 mph - N/A   Overcast
2:16 PM - - - N/A% 29.14 in 3.0 mi North 3.5 mph - N/A   Overcast
2:36 PM -5.8 °F - - N/A% 29.15 in 3.0 mi Calm Calm - N/A   Overcast
2:56 PM -5.8 °F - -27.4 °F 35% 29.15 in 10.0 mi Calm Calm - N/A   Overcast
3:16 PM -5.8 °F - -22.0 °F 46% 29.15 in 5.0 mi Calm Calm - N/A   Overcast
3:21 PM -5.8 °F - -18.4 °F 55% 29.15 in 3.0 mi Calm Calm - N/A Snow Light Snow
3:36 PM -5.8 °F - -14.8 °F 65% 29.15 in 3.0 mi Calm Calm - N/A   Overcast
3:38 PM -5.8 °F - -14.8 °F 65% 29.15 in 3.0 mi Calm Calm - N/A Snow Light Snow
3:56 PM -5.8 °F -14.5 °F -9.4 °F 84% 29.15 in 8.0 mi WNW 3.5 mph - N/A   Overcast
4:16 PM -5.8 °F - -14.8 °F 65% 29.15 in 2.0 mi Calm Calm - N/A   Overcast
4:19 PM -5.8 °F - -5.8 °F 100% 29.15 in 1.8 mi Calm Calm - N/A Snow Light Snow
4:25 PM -5.8 °F - -5.8 °F 100% 29.14 in 2.5 mi Calm Calm - N/A Snow Light Snow
4:36 PM -5.8 °F - - N/A% 29.14 in 5.0 mi Calm Calm - N/A   Mostly Cloudy
4:52 PM -4.0 °F - -29.2 °F 29% 29.13 in 8.0 mi Calm Calm - N/A Snow Light Snow
4:56 PM -5.8 °F - -27.4 °F 35% 29.13 in 10.0 mi Calm Calm - N/A   Overcast
5:16 PM -4.0 °F -12.4 °F -29.2 °F 29% 29.13 in 5.0 mi NNW 3.5 mph - N/A   Overcast
5:36 PM -4.0 °F - -27.4 °F 32% 29.13 in 10.0 mi Calm Calm - N/A   Overcast
5:56 PM -5.8 °F - -18.4 °F 55% 29.13 in 10.0 mi Calm Calm - N/A   Overcast
6:16 PM -4.0 °F - -7.6 °F 85% 29.13 in 10.0 mi Calm Calm - N/A   Overcast
6:36 PM -4.0 °F - -25.6 °F 35% 29.13 in 8.0 mi Calm Calm - N/A   Overcast
6:56 PM -4.0 °F - - N/A% 29.14 in 8.0 mi Calm Calm - N/A   Overcast
7:16 PM -4.0 °F - -29.2 °F 29% 29.13 in 10.0 mi Calm Calm - N/A   Overcast
7:36 PM -4.0 °F - -29.2 °F 29% 29.13 in 10.0 mi Calm Calm - N/A   Overcast
7:56 PM -4.0 °F - -25.6 °F 35% 29.13 in 5.0 mi Calm Calm - N/A   Overcast
8:16 PM -2.2 °F - -18.4 °F 46% 29.13 in 4.0 mi Calm Calm - N/A   Overcast
8:36 PM -4.0 °F - -14.8 °F 60% 29.14 in 3.0 mi Calm Calm - N/A   Overcast
8:56 PM -4.0 °F - - N/A% 29.13 in 3.0 mi Calm Calm - N/A   Overcast
9:16 PM -5.8 °F - - N/A% 29.13 in 2.5 mi Calm Calm - N/A   Overcast
9:36 PM -4.0 °F - - N/A% 29.12 in 2.0 mi Calm Calm - N/A   Overcast
9:56 PM - - - N/A% 29.11 in 3.0 mi Calm Calm - N/A   Mostly Cloudy
10:16 PM - - - N/A% 29.11 in 4.0 mi NE 3.5 mph - N/A   Overcast
10:36 PM - - - N/A% 29.12 in 7.0 mi ENE 3.5 mph - N/A   Overcast
10:56 PM - - - N/A% 29.12 in 10.0 mi NE 4.6 mph - N/A   Overcast
11:16 PM - - - N/A% 29.12 in 7.0 mi NE 6.9 mph - N/A   Overcast
11:36 PM - - - N/A% 29.12 in 4.0 mi NE 6.9 mph - N/A   Overcast
11:56 PM - - - N/A% 29.12 in 1.8 mi ENE 4.6 mph - N/A   Overcast